GW3615 Weather Reports


time (UTC)temp
C
wind
direction
speed
KPH
gust
KPH
rain 1hr
cm
rain 24hr
cm
rain mn
cm
humidity
%
barometer
mb
20260504070228 37 257 4.8 8.0 0.00 0.00 0.00 44 1006.8
20260504060227 36 196 1.6 4.8 0.00 0.00 0.00 48 1007.8
20260504050727 35 283 6.4 9.7 0.00 0.00 0.00 51 1008.1
20260504050228 34 280 4.8 9.7 0.00 0.00 0.00 52 1008.1
20260504045727 34 209 3.2 9.7 0.00 0.00 0.00 54 1008.1
20260504044752 33 212 1.6 12.9 0.00 0.00 0.00 55 1008.5
20260504044228 34 230 4.8 16.1 0.00 0.00 0.00 53 1008.5
20260504043728 34 168 4.8 11.3 0.00 0.00 0.00 52 1008.5
20260504043228 35 232 11.3 14.5 0.00 0.00 0.00 52 1008.5
20260504042730 34 234 3.2 9.7 0.00 0.00 0.00 53 1008.5
20260504042229 33 269 4.8 11.3 0.00 0.00 0.00 53 1008.1
20260504041728 33 255 1.6 11.3 0.00 0.00 0.00 56 1008.5
20260504041230 33 307 3.2 8.0 0.00 0.00 0.00 57 1008.5
20260504040727 33 289 6.4 9.7 0.00 0.00 0.00 58 1008.5
20260504040227 33 183 4.8 4.8 0.00 0.00 0.00 59 1008.5
20260504035728 32 250 4.8 8.0 0.00 0.00 0.00 59 1008.5
20260504035227 32 260 6.4 9.7 0.00 0.00 0.00 60 1008.5
20260504034727 32 267 1.6 8.0 0.00 0.00 0.00 61 1008.5
20260504034227 32 258 1.6 4.8 0.00 0.00 0.00 62 1008.5
20260504033727 32 250 3.2 9.7 0.00 0.00 0.00 64 1008.5
20260504033230 32 316 3.2 9.7 0.00 0.00 0.00 64 1008.5
20260504032728 32 327 4.8 8.0 0.00 0.00 0.00 64 1008.8
20260504032228 31 243 0.0 4.8 0.00 0.00 0.00 66 1008.5
20260504031727 31 203 3.2 9.7 0.00 0.00 0.00 67 1008.5
20260504031227 31 283 3.2 8.0 0.00 0.00 0.00 66 1008.5
20260504030727 31 263 3.2 3.2 0.00 0.00 0.00 66 1008.5
20260504030228 31 244 1.6 8.0 0.00 0.00 0.00 67 1008.5
20260504025727 31 266 1.6 8.0 0.00 0.00 0.00 68 1008.5
20260504025228 31 244 3.2 9.7 0.00 0.00 0.00 68 1008.1
20260504024727 31 247 6.4 9.7 0.00 0.00 0.00 74 1007.8
20260504024227 31 147 6.4 9.7 0.00 0.00 0.00 74 1008.1
20260504023727 31 142 6.4 12.9 0.00 0.00 0.00 74 1007.8
20260504023227 31 172 6.4 9.7 0.00 0.00 0.00 74 1007.8
20260504022728 30 212 3.2 8.0 0.00 0.00 0.00 72 1007.8
20260504022228 30 192 1.6 8.0 0.00 0.00 0.00 72 1007.5
20260504021727 30 250 0.0 1.6 0.00 0.00 0.00 72 1007.5
20260504021227 30 251 1.6 1.6 0.00 0.00 0.00 72 1007.5
20260504020727 29 262 0.0 1.6 0.00 0.00 0.00 72 1007.5
20260504020227 29 280 1.6 1.6 0.00 0.00 0.00 72 1007.5
20260504015727 29 281 3.2 3.2 0.00 0.00 0.00 72 1007.1
20260504015227 28 259 0.0 4.8 0.00 0.00 0.00 74 1007.1
20260504014727 28 262 0.0 4.8 0.00 0.00 0.00 77 1007.5
20260504014227 28 269 0.0 0.0 0.00 0.00 0.00 78 1007.1
20260504013728 28 316 0.0 3.2 0.00 0.00 0.00 78 1007.5
20260504013228 28 285 4.8 4.8 0.00 0.00 0.00 78 1007.5
20260504012727 28 294 1.6 4.8 0.00 0.00 0.00 78 1007.5
20260504012227 28 280 0.0 1.6 0.00 0.00 0.00 79 1007.5
20260504011728 28 250 0.0 1.6 0.00 0.00 0.00 80 1007.1
20260504011227 28 258 0.0 3.2 0.00 0.00 0.00 80 1007.1
20260504010727 28 244 0.0 1.6 0.00 0.00 0.00 80 1007.1
20260504010227 28 244 0.0 1.6 0.00 0.00 0.00 80 1007.1
20260504005727 28 240 0.0 1.6 0.00 0.00 0.00 80 1007.1
20260504005227 27 231 1.6 1.6 0.00 0.00 0.00 80 1006.8
20260504004727 27 230 1.6 1.6 0.00 0.00 0.00 80 1006.8
20260504004227 27 232 0.0 0.0 0.00 0.00 0.00 80 1006.8
20260504003727 27 233 0.0 0.0 0.00 0.00 0.00 80 1006.8
20260504003227 27 233 0.0 0.0 0.00 0.00 0.00 80 1006.8
20260504002727 27 254 0.0 1.6 0.00 0.00 0.00 80 1006.8
20260504002227 27 254 1.6 1.6 0.00 0.00 0.00 80 1006.8
20260504001728 27 251 0.0 1.6 0.00 0.00 0.00 80 1006.8
20260504001227 27 251 1.6 1.6 0.00 0.00 0.00 81 1006.8
20260504000728 27 238 0.0 1.6 0.00 0.00 0.00 81 1006.8
20260504000227 27 252 0.0 1.6 0.00 0.00 0.00 81 1006.8
20260503235727 27 254 1.6 3.2 0.00 0.00 0.00 82 1006.4
20260503235228 27 254 0.0 1.6 0.00 0.00 0.00 82 1006.1
20260503234727 27 200 0.0 0.0 0.00 0.00 0.00 82 1006.4
20260503234227 27 199 0.0 1.6 0.00 0.00 0.00 82 1006.4
20260503233728 27 197 0.0 1.6 0.00 0.00 0.00 82 1006.1
20260503233228 27 172 0.0 1.6 0.00 0.00 0.00 82 1006.4
20260503232726 27 172 1.6 1.6 0.00 0.00 0.00 81 1006.1
20260503232228 27 172 0.0 0.0 0.00 0.00 0.00 81 1006.1
20260503231727 27 172 1.6 1.6 0.00 0.00 0.00 80 1005.8
20260503231227 27 171 0.0 1.6 0.00 0.00 0.00 80 1005.8
20260503230728 27 171 0.0 0.0 0.00 0.00 0.00 80 1005.8
20260503230228 27 149 0.0 1.6 0.00 0.00 0.00 80 1005.8
20260503225728 27 203 0.0 1.6 0.00 0.00 0.00 79 1005.8
20260503225227 27 261 0.0 3.2 0.00 0.00 0.00 79 1005.8
20260503224727 27 238 1.6 1.6 0.00 0.00 0.00 79 1005.8
20260503224227 27 262 1.6 3.2 0.00 0.00 0.00 79 1005.8
20260503223727 27 254 0.0 3.2 0.00 0.00 0.00 79 1005.8
20260503223226 27 259 0.0 4.8 0.00 0.00 0.00 78 1005.8
20260503222727 27 236 0.0 3.2 0.00 0.00 0.00 78 1005.8
20260503222227 27 254 0.0 1.6 0.00 0.00 0.00 78 1005.4
20260503221727 27 110 0.0 1.6 0.00 0.00 0.00 78 1005.8
20260503221227 27 105 0.0 0.0 0.00 0.00 0.00 78 1005.4
20260503220729 27 105 0.0 0.0 0.00 0.00 0.00 77 1005.4
20260503220227 27 104 0.0 3.2 0.00 0.00 0.00 77 1005.4
20260503215727 27 77 0.0 3.2 0.00 0.00 0.00 77 1005.1
20260503215227 27 58 0.0 1.6 0.00 0.00 0.00 77 1005.1
20260503214727 27 58 1.6 1.6 0.00 0.00 0.00 77 1005.4
20260503214227 28 46 0.0 0.0 0.00 0.00 0.00 77 1005.1
20260503213728 28 22 0.0 1.6 0.00 0.00 0.00 76 1005.1
20260503213227 28 22 0.0 0.0 0.00 0.00 0.00 76 1005.1
20260503212727 28 21 0.0 1.6 0.00 0.00 0.00 76 1004.7
20260503212227 28 350 0.0 1.6 0.00 0.00 0.00 75 1004.7
20260503211727 28 349 0.0 0.0 0.00 0.00 0.00 75 1004.7
20260503211227 28 349 0.0 1.6 0.00 0.00 0.00 75 1004.7
20260503210727 28 350 0.0 1.6 0.00 0.00 0.00 75 1004.7
20260503210227 28 350 0.0 1.6 0.00 0.00 0.00 75 1004.7
20260503205727 28 350 0.0 0.0 0.00 0.00 0.00 75 1004.7
20260503205228 28 350 0.0 0.0 0.00 0.00 0.00 75 1004.7
20260503204728 28 349 0.0 1.6 0.00 0.00 0.00 74 1004.7
20260503204228 28 60 0.0 1.6 0.00 0.00 0.00 74 1004.7
20260503203727 28 86 0.0 1.6 0.00 0.00 0.00 75 1004.7
20260503203227 28 73 1.6 3.2 0.00 0.00 0.00 75 1004.7
20260503202730 28 45 0.0 1.6 0.00 0.00 0.00 75 1004.7
20260503202228 28 46 0.0 1.6 0.00 0.00 0.00 75 1004.7
20260503201727 28 161 0.0 1.6 0.00 0.00 0.00 75 1004.7
20260503201227 28 160 0.0 0.0 0.00 0.00 0.00 75 1005.1
20260503200727 28 193 0.0 1.6 0.00 0.00 0.00 75 1004.7
20260503200229 28 167 1.6 8.0 0.00 0.00 0.00 75 1004.4
20260503195728 28 178 1.6 3.2 0.00 0.00 0.00 75 1004.1
20260503195227 28 175 3.2 8.0 0.00 0.00 0.00 74 1004.7
20260503194727 28 179 1.6 4.8 0.00 0.00 0.00 74 1004.4
20260503194228 28 159 1.6 4.8 0.00 0.00 0.00 74 1004.7
20260503193727 28 227 4.8 9.7 0.00 0.00 0.00 74 1004.4
20260503193227 28 214 4.8 9.7 0.00 0.00 0.00 74 1004.4
20260503192728 28 139 1.6 3.2 0.00 0.00 0.00 74 1004.1
20260503192228 28 250 3.2 9.7 0.00 0.00 0.00 75 1004.4
20260503191727 28 127 6.4 8.0 0.00 0.00 0.00 76 1004.4
20260503191227 28 55 3.2 14.5 0.00 0.00 0.00 76 1004.1
20260503190727 28 56 1.6 9.7 0.00 0.00 0.00 76 1004.1
20260503190230 27 78 4.8 9.7 0.00 0.00 0.00 76 1004.4
20260503185728 27 124 4.8 9.7 0.00 0.00 0.00 76 1004.7
20260503185227 27 99 3.2 8.0 0.00 0.00 0.00 76 1005.1
20260503184727 27 98 1.6 4.8 0.00 0.00 0.00 75 1005.4
20260503184227 27 110 3.2 8.0 0.00 0.00 0.00 75 1005.8
20260503183727 27 105 3.2 4.8 0.00 0.00 0.00 75 1005.8
20260503183230 27 98 3.2 3.2 0.00 0.00 0.00 75 1006.1
20260503182727 27 104 0.0 3.2 0.00 0.00 0.00 75 1006.4
20260503182228 27 166 0.0 3.2 0.00 0.00 0.00 75 1006.8
20260503181727 27 116 0.0 1.6 0.00 0.00 0.00 75 1006.8
20260503181229 27 108 0.0 1.6 0.00 0.00 0.00 74 1007.1
20260503180727 27 112 3.2 3.2 0.00 0.00 0.00 74 1007.5
20260503180228 27 117 3.2 4.8 0.00 0.00 0.00 74 1007.5
20260503175727 27 112 1.6 3.2 0.00 0.00 0.00 73 1007.8
20260503175227 27 122 1.6 3.2 0.00 0.00 0.00 72 1007.8
20260503174730 27 121 1.6 3.2 0.00 0.00 0.00 72 1007.8
20260503174227 27 123 1.6 1.6 0.00 0.00 0.00 72 1008.5
20260503173727 27 133 1.6 1.6 0.00 0.00 0.00 72 1007.8
20260503173226 27 186 1.6 3.2 0.00 0.00 0.00 72 1008.1
20260503172727 27 187 0.0 3.2 0.00 0.00 0.00 71 1008.1
20260503172229 27 214 0.0 4.8 0.00 0.00 0.00 71 1008.5
20260503171728 27 155 4.8 8.0 0.00 0.00 0.00 70 1008.5
20260503171227 27 206 4.8 4.8 0.00 0.00 0.00 69 1008.5
20260503170727 27 158 3.2 4.8 0.00 0.00 0.00 69 1008.5
20260503170227 27 212 1.6 4.8 0.00 0.00 0.00 69 1008.8
20260503150727 30 255 1.6 1.6 0.00 0.00 0.00 56 1007.8
20260503150229 30 269 1.6 3.2 0.00 0.00 0.00 57 1007.8
20260503140227 31 324 1.6 1.6 0.00 0.00 0.00 74 1007.1
20260503131227 30 136 0.0 3.2 0.00 0.00 0.00 76 1004.7
20260503130727 30 143 1.6 4.8 0.00 0.00 0.00 75 1004.4
20260503130229 30 89 1.6 3.2 0.00 0.00 0.00 75 1004.4
20260503110727 32 98 3.2 9.7 0.00 0.00 0.00 64 1002.7
20260503110227 32 223 1.6 8.0 0.00 0.00 0.00 65 1002.7
20260503100228 31 94 8.0 14.5 0.00 0.00 0.00 67 1003.7
20260503090227 32 121 8.0 14.5 0.00 0.00 0.00 68 1004.7
20260503081228 34 94 8.0 17.7 0.00 0.00 0.00 64 1005.1
20260503080728 35 128 8.0 12.9 0.00 0.00 0.00 63 1004.7
20260503080227 35 106 6.4 17.7 0.00 0.00 0.00 62 1005.1
20260503072728 37 147 9.7 24.1 0.00 0.00 0.00 58 1004.7
20260503072227 37 139 9.7 14.5 0.00 0.00 0.00 57 1005.1
20260503071727 37 108 9.7 14.5 0.00 0.00 0.00 55 1004.7